Flag for South Africa Weather past 2 weeks in Cape Town, South Africa

Now
57 °F

Partly cloudy.


Feels Like: 56 °F
Forecast: 57 / 60 °F
Wind: 7 mph from Northwest

Location: Cape Town International Airport

Current Time: Aug 27, 2015 at 11:45:41 PM

Latest Report: Aug 27, 2015 at 11:00 PM


Visibility: N/A

Pressure: 30.04 "Hg

Humidity: 88%

Dew point: 54 °F

Location of Cape TownLocation

Historic Weather in Cape Town — Graph

°F

Cape Town temperature yesterday

Maximum temperature yesterday: 64 °F (at 12:00 PM)
Minimum temperature yesterday: 46 °F (at 4:00 AM)
Average temperature yesterday: 56 °F

Past Weeks' High & Low Weather Summary

 TemperatureHumidityPressure
High75 °F (Aug 21, 3:00 PM)100% (Aug 12, 10:00 PM)30.33 "Hg (Aug 12, 10:00 PM)
Low43 °F (Aug 17, 6:00 AM)41% (Aug 21, 3:00 PM)29.86 "Hg (Aug 13, 5:00 AM)
Average57 °F87%30.07 "Hg
* Reported Aug 12 10:00 PM — Aug 27 10:00 PM, Cape Town, Weather by CustomWeather, © 2015

Note: Actual official high and low records may vary slightly from our data, if they occured in-between our weather recording intervals... More about our weather records

Advertising

Cape Town weather history for previous 24 hours

 ConditionsComfort  
Time TempWeatherWind HumidityBarometerVisibility
10:00 PM
Thu, Aug 27
57 °FPartly cloudy.9 mph88%30.04 "HgN/A
9:00 PM59 °FPassing clouds.12 mph82%30.04 "HgN/A
8:00 PM59 °FPassing clouds.13 mph82%30.04 "HgN/A
7:00 PM59 °FPassing clouds.13 mph82%30.01 "HgN/A
6:00 PM61 °FPassing clouds.14 mph83%29.98 "HgN/A
5:00 PM63 °FPartly sunny.14 mph77%29.98 "HgN/A
4:00 PM66 °FScattered clouds.13 mph68%29.95 "HgN/A
3:00 PM66 °FScattered clouds.5 mph68%29.95 "HgN/A
2:00 PM66 °FPassing clouds.5 mph68%29.98 "HgN/A
1:00 PM64 °FPassing clouds.8 mph68%29.98 "HgN/A
12:00 PM63 °FPassing clouds.12 mph77%30.01 "HgN/A
11:00 AM61 °FPassing clouds.12 mph83%29.98 "HgN/A
10:00 AM61 °FPassing clouds.9 mph83%29.98 "HgN/A
9:00 AM59 °FPassing clouds.8 mph82%29.98 "HgN/A
8:00 AM57 °FPassing clouds.10 mph88%29.98 "HgN/A
7:00 AM57 °FPassing clouds.10 mph88%29.98 "HgN/A
6:00 AM57 °FClear.10 mph88%29.95 "Hg10 mi
5:00 AM57 °FPassing clouds.12 mph88%29.95 "HgN/A
4:00 AM57 °FPassing clouds.10 mph88%29.95 "HgN/A
3:00 AM57 °FPassing clouds.9 mph88%29.98 "HgN/A
2:00 AM57 °FPassing clouds.10 mph94%29.98 "HgN/A
1:00 AM57 °FPassing clouds.10 mph88%29.98 "HgN/A
12:00 AM57 °FPassing clouds.14 mph94%29.98 "HgN/A
11:00 PM
Wed, Aug 26
57 °FPassing clouds.13 mph94%29.98 "HgN/A
Weather by CustomWeather, © 2015

See weather overviewHow to use our weather pages